カタログに戻る

FLOCK 4H 21

運用中科学SSO
NORAD 66724·PAYLOAD·🇺🇸 United States

打ち上げ Nov 28, 2025 から Vandenberg Space Force Base

Loading…

次のパス (今後24時間)

TLE

最新Source: CelesTrak SupGP

元期: Sep 14, 2026, 12:45 UTC

1 66724C 25276BL  26257.53140046  .00008125  00000+0  35967-3 0  2577
2 66724  97.4108 329.9468 0002504  33.5547 276.1401 15.21720134    13

AllMySatでFLOCK 4H 21をリアルタイム追跡

Download on the App Store